Weather in Lendery

Russia / Republic of Karelia     63°25′41″N   31°10′18″E
temp.,
°C
wind,
m/s
gust,
m/s
humid.,
%
clouds,
%
prec.,
mm/h
press.,
hPa
HPBL,
m
20 september, mon
mon2000:00+5e3762100 0.0 1034384
03:00+4ene2675100 0.0 1034218
06:00+1e27945 0.0 1035164
09:00+4e387511 0.0 1035471
12:00+6e4766100 0.0 10351185
15:00+7e366099 0.0 10331307
18:00+6e47645 0.0 1032711
21:00+1ene298222 0.0 1032184
21 september, tue
tue2100:00+3ese267997 0.0 1032250
03:000e258879 0.0 103198
06:00+2e2571100 0.0 1030240
09:00+4e366295 0.0 1028759
12:00+6ese345597 0.0 1027937
15:00+8ese3453100 0.0 10261056
18:00+6e246793 0.0 1025143
21:00+2ese238380 0.0 102649
22 september, wed
wed2200:00+1e11907 0.0 102610
03:000ene11915 0.0 102610
06:00−1e11920 0.0 102611
09:00+4ese23762 0.0 1026194
12:00+8sse235796 0.0 1025788
15:00+10sse125194 0.0 1024946
18:00+7se1168100 0.0 102311
21:00+3se2283100 0.0 102313
23 september, thu
thu2300:00+2se22935 0.0 102214
03:00+1se21940 0.0 102013
06:000se22950 0.0 101925
09:00+4sse39830 0.0 1017275
12:00+9sse58583 0.0 1015775
15:00+11sse585730 0.0 10121129
18:00+8sse5107346 0.0 1010925
21:00+8s51273100 0.0 10091235
24 september, fri
fri2400:00+8sse5127399 0.0 10081315
03:00+7sse51189100 0.0 1006879
06:00+6sse51289100 0.1 10051212
09:00+7sse51481100 0.1 10041537
12:00+8sse61269100 0.1 10041540
15:00+8se51264100 0.1 10031589
18:00+8se5107198 0.1 1002919
21:00+6se41187100 0.1 1002623